Albert Lea, MN

11:27 AM CST on February 09, 2016 (GMT -0600)
Albert Lea Municipal

Weather History for KAEL - January, 2013

Change the Weather History Date:

Tuesday, January 29, 2013

  Actual Average (KMCW) Record (KMCW)
Temperature  
Mean Temperature 34 °F 16 °F  
Max Temperature 37 °F 25 °F 50 °F (1931)
Min Temperature 30 °F 7 °F -28 °F (1966)
Degree Days  
Heating Degree Days 32 49  
Month to date heating degree days 1421  
Since 1 July heating degree days 4510  
Cooling Degree Days 0 0  
Month to date cooling degree days 0  
Year to date cooling degree days 0  
Moisture  
Dew Point 34 °F    
Average Humidity 99    
Maximum Humidity 100    
Minimum Humidity 86    
Precipitation  
Precipitation 0.00 in 0.03 in 0.62 in (1909)
Month to date precipitation 0.76  
Year to date precipitation 0.76  
Snow  
Snow 0.00 in 0.40 in 7.00 in (1936)
Month to date snowfall 10.1  
Since 1 July snowfall 24.1  
Snow Depth -    
Sea Level Pressure  
Sea Level Pressure 29.59 in    
Wind  
Wind Speed 6 mph (NNW)    
Max Wind Speed 17 mph    
Max Gust Speed 25 mph    
Visibility 6 miles    
Events Fog , Snow , Thunderstorm    
T = Trace of Precipitation, MM = Missing Value Source: NWS Daily Summary

Daily Weather History Graph

Daily Weather History Graph

Search for Another Location

Airport or City:

Trip Planner

Search our weather history database for the weather conditions in past years. The results will help you decide how hot, cold, wet, or windy it might be!

Date:

Astronomy

Jan. 29, 2013 Rise Set
Actual Time 7:32 AM CST 5:20 PM CST
Civil Twilight 7:02 AM CST 5:51 PM CST
Nautical Twilight 6:27 AM CST 6:26 PM CST
Astronomical Twilight 5:53 AM CST 6:59 PM CST
Moon 8:25 PM CST (1/29) 8:23 AM CST (1/29)
Length of Visible Light 10h 49m
Length of Day
9h 47m
Waning Gibbous, 93% of the Moon is Illuminated
Jan 29
Waning Gibbous
Feb 3
Last Quarter
Feb 10
New
Feb 17
First Quarter
Feb 25
Full

Hourly Weather History & Observations

Time (CST) Temp. Windchill Dew Point Humidity Pressure Visibility Wind Dir Wind Speed Gust Speed Precip Events Conditions
12:11 AM 35.6 °F - 35.6 °F 100% 29.57 in 0.2 mi Calm Calm - N/A Fog Fog
12:30 AM 35.6 °F 32.8 °F 35.6 °F 100% 29.56 in 0.2 mi East 3.5 mph - 0.07 in Snow , Thunderstorm Heavy Thunderstorms and Snow
12:50 AM 35.6 °F - 35.6 °F 100% 29.56 in 0.2 mi Calm Calm - N/A   Overcast
1:11 AM 35.6 °F - 35.6 °F 100% 29.54 in 0.2 mi Calm Calm - N/A Fog Fog
1:30 AM 35.6 °F - 35.6 °F 100% 29.52 in 0.2 mi Calm Calm - N/A Fog Fog
1:50 AM 35.6 °F - 35.6 °F 100% 29.52 in 0.2 mi Calm Calm - N/A Fog Fog
2:11 AM 35.6 °F - 35.6 °F 100% 29.52 in 0.2 mi Calm Calm - N/A Fog Fog
2:30 AM 35.6 °F - 35.6 °F 100% 29.51 in 0.2 mi Calm Calm - N/A   Overcast
2:50 AM 35.6 °F - 35.6 °F 100% 29.52 in 0.5 mi Calm Calm - N/A Fog Fog
3:11 AM 35.6 °F - 35.6 °F 100% 29.52 in 0.5 mi Calm Calm - N/A   Drizzle
3:30 AM 35.6 °F - 35.6 °F 100% 29.52 in 0.5 mi Calm Calm - N/A   Overcast
4:11 AM 37.4 °F 32.1 °F 37.4 °F 100% 29.51 in 1.2 mi West 6.9 mph - N/A   Overcast
4:30 AM 37.4 °F 30.8 °F 37.4 °F 100% 29.52 in 0.5 mi West 9.2 mph - N/A Fog Fog
4:50 AM 35.6 °F 29.9 °F 35.6 °F 100% 29.53 in 0.5 mi WNW 6.9 mph - N/A Fog Fog
5:10 AM 35.6 °F 31.7 °F 35.6 °F 100% 29.52 in 0.5 mi NW 4.6 mph - N/A Fog Fog
5:30 AM 35.6 °F 31.7 °F 35.6 °F 100% 29.53 in 1.0 mi NW 4.6 mph - N/A   Overcast
6:10 AM 33.8 °F 29.6 °F 33.8 °F 100% 29.53 in 5.0 mi NW 4.6 mph - N/A   Overcast
6:30 AM 33.8 °F 28.6 °F 33.8 °F 100% 29.54 in 5.0 mi WNW 5.8 mph - N/A   Overcast
6:51 AM 33.8 °F 27.7 °F 33.8 °F 100% 29.54 in 4.0 mi NW 6.9 mph - N/A   Overcast
7:10 AM 33.8 °F 29.6 °F 33.8 °F 100% 29.54 in 4.0 mi NW 4.6 mph - N/A   Overcast
7:30 AM 33.8 °F 27.7 °F 33.8 °F 100% 29.55 in 4.0 mi North 6.9 mph - N/A   Overcast
7:51 AM 33.8 °F 27.7 °F 33.8 °F 100% 29.56 in 5.0 mi NW 6.9 mph - N/A   Overcast
8:10 AM 33.8 °F 28.6 °F 33.8 °F 100% 29.57 in 4.0 mi NW 5.8 mph - N/A   Overcast
8:30 AM 33.8 °F 27.0 °F 33.8 °F 100% 29.58 in 2.5 mi WNW 8.1 mph - N/A   Overcast
8:51 AM 33.8 °F 27.0 °F 33.8 °F 100% 29.58 in 2.5 mi NW 8.1 mph 16.1 mph N/A   Overcast
9:10 AM 33.8 °F 25.8 °F 33.8 °F 100% 29.58 in 4.0 mi NW 10.4 mph - N/A   Overcast
9:31 AM 33.8 °F 28.6 °F 33.8 °F 100% 29.59 in 4.0 mi NW 5.8 mph - N/A   Overcast
9:50 AM 33.8 °F 28.6 °F 33.8 °F 100% 29.61 in 3.0 mi NW 5.8 mph - N/A   Overcast
10:10 AM 33.8 °F 28.6 °F 33.8 °F 100% 29.63 in 4.0 mi NW 5.8 mph - N/A   Overcast
10:31 AM 33.8 °F 26.4 °F 33.8 °F 100% 29.63 in 4.0 mi NW 9.2 mph - N/A   Overcast
10:50 AM 33.8 °F 27.7 °F 33.8 °F 100% 29.64 in 1.8 mi NW 6.9 mph - N/A   Overcast
11:10 AM 33.8 °F 28.6 °F 33.8 °F 100% 29.66 in 4.0 mi NW 5.8 mph - N/A   Overcast
11:31 AM 33.8 °F 27.7 °F 33.8 °F 100% 29.64 in 4.0 mi NW 6.9 mph - N/A   Overcast
11:50 AM 33.8 °F 26.4 °F 33.8 °F 100% 29.63 in 2.5 mi NW 9.2 mph - N/A   Overcast
12:10 PM 33.8 °F 27.7 °F 33.8 °F 100% 29.62 in 3.0 mi NNW 6.9 mph - N/A   Overcast
12:31 PM 33.8 °F 26.4 °F 33.8 °F 100% 29.61 in 3.0 mi NNW 9.2 mph - N/A   Overcast
12:50 PM 33.8 °F 27.7 °F 33.8 °F 100% 29.61 in 4.0 mi NNW 6.9 mph - N/A   Overcast
1:11 PM 33.8 °F 25.8 °F 33.8 °F 100% 29.59 in 5.0 mi North 10.4 mph - N/A   Overcast
1:30 PM 33.8 °F 25.3 °F 33.8 °F 100% 29.58 in 5.0 mi NNW 11.5 mph - N/A   Overcast
1:50 PM 33.8 °F 27.0 °F 33.8 °F 100% 29.60 in 7.0 mi NNW 8.1 mph - N/A   Overcast
2:11 PM 33.8 °F 25.8 °F 33.8 °F 100% 29.58 in 7.0 mi NNW 10.4 mph - N/A   Overcast
2:30 PM 33.8 °F 26.4 °F 33.8 °F 100% 29.59 in 7.0 mi NNW 9.2 mph - N/A   Overcast
2:50 PM 33.8 °F 25.3 °F 33.8 °F 100% 29.59 in 10.0 mi NNW 11.5 mph 19.6 mph N/A   Overcast
3:11 PM 33.8 °F 26.4 °F 33.8 °F 100% 29.61 in 10.0 mi North 9.2 mph - N/A   Overcast
3:30 PM 33.8 °F 25.8 °F 33.8 °F 100% 29.60 in 10.0 mi North 10.4 mph - N/A   Overcast
3:50 PM 33.8 °F 25.8 °F 33.8 °F 100% 29.60 in 10.0 mi North 10.4 mph 17.3 mph N/A   Overcast
4:10 PM 33.8 °F 26.4 °F 33.8 °F 100% 29.61 in 10.0 mi North 9.2 mph - N/A   Overcast
4:30 PM 33.8 °F 27.0 °F 33.8 °F 100% 29.60 in 10.0 mi NNW 8.1 mph - N/A   Overcast
4:51 PM 33.8 °F 27.0 °F 33.8 °F 100% 29.61 in 10.0 mi North 8.1 mph - N/A   Overcast
5:10 PM 33.8 °F 26.4 °F 33.8 °F 100% 29.62 in 10.0 mi NNW 9.2 mph - N/A   Overcast
5:31 PM 33.8 °F 26.4 °F 33.8 °F 100% 29.64 in 10.0 mi NNW 9.2 mph - N/A   Overcast
5:50 PM 33.8 °F 25.3 °F 33.8 °F 100% 29.63 in 10.0 mi NNW 11.5 mph 16.1 mph N/A   Overcast
6:11 PM 33.8 °F 25.8 °F 33.8 °F 100% 29.62 in 7.0 mi North 10.4 mph - N/A   Overcast
6:30 PM 33.8 °F 25.8 °F 33.8 °F 100% 29.62 in 10.0 mi North 10.4 mph - N/A   Overcast
6:50 PM 33.8 °F 25.3 °F 33.8 °F 100% 29.60 in 10.0 mi NNW 11.5 mph - N/A   Overcast
7:11 PM 33.8 °F 24.3 °F 33.8 °F 100% 29.62 in 10.0 mi NNW 13.8 mph 19.6 mph N/A   Overcast
7:30 PM 33.8 °F 24.3 °F 33.8 °F 100% 29.63 in 10.0 mi NNW 13.8 mph 17.3 mph N/A   Overcast
7:50 PM 33.8 °F 26.4 °F 32.0 °F 93% 29.67 in 7.0 mi NNW 9.2 mph - N/A   Overcast
8:11 PM 33.8 °F 24.3 °F 32.0 °F 93% 29.64 in 7.0 mi NNW 13.8 mph 18.4 mph N/A   Overcast
8:30 PM 33.8 °F 24.3 °F 32.0 °F 93% 29.62 in 7.0 mi NNW 13.8 mph 19.6 mph N/A   Overcast
8:50 PM 32.0 °F 22.5 °F 30.2 °F 93% 29.60 in 10.0 mi NNW 12.7 mph 24.2 mph N/A   Overcast
9:11 PM 32.0 °F 21.2 °F 30.2 °F 93% 29.62 in 10.0 mi North 16.1 mph 23.0 mph N/A   Overcast
9:30 PM 32.0 °F 21.6 °F 30.2 °F 93% 29.64 in 10.0 mi North 15.0 mph 21.9 mph N/A   Overcast
9:50 PM 32.0 °F 21.6 °F 30.2 °F 93% 29.66 in 10.0 mi NNW 15.0 mph 21.9 mph N/A   Overcast
10:11 PM 30.2 °F 19.3 °F 30.2 °F 100% 29.66 in 10.0 mi NNW 15.0 mph 20.7 mph N/A   Overcast
10:30 PM 30.2 °F 18.5 °F 28.4 °F 93% 29.65 in 10.0 mi NNW 17.3 mph 23.0 mph N/A   Overcast
10:50 PM 30.2 °F 19.8 °F 28.4 °F 93% 29.63 in 10.0 mi North 13.8 mph 18.4 mph N/A   Overcast
11:10 PM 30.2 °F 19.8 °F 28.4 °F 93% 29.66 in 10.0 mi NNW 13.8 mph 25.3 mph N/A   Overcast
11:30 PM 30.2 °F 18.9 °F 28.4 °F 93% 29.66 in 10.0 mi North 16.1 mph 21.9 mph N/A   Overcast
11:51 PM 30.2 °F 19.3 °F 26.6 °F 86% 29.62 in 10.0 mi North 15.0 mph 25.3 mph N/A   Overcast